| time (UTC) | temp F | wind direction | speed knots | gust knots | rain 1hr in | rain 24hr in | rain mn in | humidity % | barometer mb |
| 20260505164603 | 76 | 277 | 0.9 | 5.2 | 0.00 | 0.00 | 0.00 | 92 | 1010.0 |
| 20260505161601 | 76 | 271 | 1.7 | 6.1 | 0.00 | 0.00 | 0.00 | 91 | 1010.0 |
| 20260505153003 | 76 | 257 | 0.0 | 0.9 | 0.00 | 0.00 | 0.00 | 88 | 1009.4 |
| 20260505151559 | 76 | 266 | 0.9 | 3.5 | 0.00 | 0.00 | 0.00 | 89 | 1009.5 |
| 20260505124603 | 75 | 92 | 1.7 | 5.2 | 0.00 | 0.00 | 0.00 | 89 | 1009.7 |
| 20260505123002 | 75 | 265 | 0.9 | 6.1 | 0.00 | 0.00 | 0.00 | 88 | 1009.6 |
| 20260505121602 | 76 | 279 | 1.7 | 10.4 | 0.00 | 0.00 | 0.00 | 86 | 1009.7 |
| 20260505114600 | 84 | 248 | 0.9 | 2.6 | 0.00 | 0.00 | 0.00 | 84 | 1009.1 |
| 20260505113003 | 85 | 234 | 1.7 | 4.3 | 0.00 | 0.00 | 0.00 | 79 | 1009.1 |
| 20260505111603 | 86 | 187 | 1.7 | 5.2 | 0.00 | 0.00 | 0.00 | 77 | 1008.5 |
| 20260505101605 | 88 | 86 | 1.7 | 3.5 | 0.00 | 0.00 | 0.00 | 72 | 1007.9 |
| 20260505094607 | 90 | 76 | 1.7 | 7.8 | 0.00 | 0.00 | 0.00 | 71 | 1007.6 |
| 20260505093004 | 91 | 115 | 3.5 | 7.0 | 0.00 | 0.00 | 0.00 | 69 | 1007.6 |
| 20260505091617 | 91 | 290 | 1.7 | 7.8 | 0.00 | 0.00 | 0.00 | 70 | 1007.7 |
| 20260505084607 | 90 | 355 | 1.7 | 6.1 | 0.00 | 0.00 | 0.00 | 71 | 1008.1 |
| 20260505083002 | 91 | 296 | 1.7 | 6.1 | 0.00 | 0.00 | 0.00 | 70 | 1008.1 |
| 20260505081559 | 90 | 338 | 1.7 | 9.6 | 0.00 | 0.00 | 0.00 | 72 | 1007.9 |
| 20260505074600 | 91 | 100 | 2.6 | 7.0 | 0.00 | 0.00 | 0.00 | 69 | 1008.5 |
| 20260505073002 | 91 | 84 | 3.5 | 7.8 | 0.00 | 0.00 | 0.00 | 69 | 1008.7 |
| 20260505071602 | 91 | 111 | 2.6 | 6.1 | 0.00 | 0.00 | 0.00 | 70 | 1009.0 |
| 20260505064559 | 90 | 74 | 2.6 | 7.8 | 0.00 | 0.00 | 0.00 | 71 | 1009.3 |
| 20260505063002 | 0 | 284.2 | 221.6 | 0.00 | 0.00 | 0.00 | 1009.7 | ||
| 20260505061625 | 0 | 284.2 | 221.6 | 0.00 | 0.00 | 0.00 | 1010.0 | ||
| 20260505054559 | 0 | 284.2 | 221.6 | 0.00 | 0.00 | 0.00 | 1010.7 | ||
| 20260505051558 | 0 | 284.2 | 221.6 | 0.00 | 0.00 | 0.00 | 1011.1 | ||
| 20260505041503 | 0 | 284.2 | 221.6 | 0.00 | 0.00 | 0.00 | 1011.9 | ||
| 20260505040005 | 0 | 284.2 | 221.6 | 0.00 | 0.00 | 0.00 | 1012.0 | ||
| 20260505034502 | 0 | 284.2 | 221.6 | 0.00 | 0.00 | 0.00 | 1011.9 | ||
| 20260505033011 | 0 | 284.2 | 221.6 | 0.00 | 0.00 | 0.00 | 1011.8 | ||
| 20260505031502 | 0 | 284.2 | 221.6 | 0.00 | 0.00 | 0.00 | 1011.7 | ||
| 20260505030008 | 0 | 284.2 | 221.6 | 0.00 | 0.00 | 0.00 | 1011.5 | ||
| 20260505024503 | 0 | 284.2 | 221.6 | 0.00 | 0.00 | 0.00 | 1011.6 | ||
| 20260505023005 | 0 | 284.2 | 221.6 | 0.00 | 0.00 | 0.00 | 1011.5 | ||
| 20260505021504 | 0 | 284.2 | 221.6 | 0.00 | 0.00 | 0.00 | 1011.5 | ||
| 20260505020007 | 0 | 284.2 | 221.6 | 0.00 | 0.00 | 0.00 | 1011.6 | ||
| 20260505014503 | 0 | 284.2 | 221.6 | 0.00 | 0.00 | 0.00 | 1011.4 | ||
| 20260505013005 | 0 | 284.2 | 221.6 | 0.00 | 0.00 | 0.00 | 1011.1 | ||
| 20260505011502 | 0 | 284.2 | 221.6 | 0.00 | 0.00 | 0.00 | 1011.1 | ||
| 20260505010002 | 0 | 284.2 | 221.6 | 0.00 | 0.00 | 0.00 | 1010.9 | ||
| 20260505004502 | 0 | 284.2 | 221.6 | 0.00 | 0.00 | 0.00 | 1010.6 | ||
| 20260505003004 | 0 | 284.2 | 221.6 | 0.00 | 0.00 | 0.00 | 1010.2 | ||
| 20260505001503 | 0 | 284.2 | 221.6 | 0.00 | 0.00 | 0.00 | 1010.0 | ||
| 20260505000003 | 0 | 284.2 | 221.6 | 0.00 | 0.00 | 0.00 | 1009.9 | ||
| 20260504234503 | 0 | 284.2 | 221.6 | 0.00 | 0.00 | 0.00 | 1009.5 | ||
| 20260504233005 | 0 | 284.2 | 221.6 | 0.00 | 0.00 | 0.00 | 1009.4 | ||
| 20260504231501 | 0 | 284.2 | 221.6 | 0.00 | 0.00 | 0.00 | 1009.1 | ||
| 20260504230002 | 0 | 284.2 | 221.6 | 0.00 | 0.00 | 0.00 | 1009.0 | ||
| 20260504224502 | 82 | 61 | 0.0 | 3.5 | 0.00 | 0.00 | 0.00 | 96 | 1009.0 |
| 20260504223005 | 82 | 66 | 1.7 | 3.5 | 0.00 | 0.00 | 0.00 | 96 | 1008.9 |
| 20260504221502 | 82 | 78 | 0.9 | 3.5 | 0.00 | 0.00 | 0.00 | 96 | 1008.7 |
| 20260504220006 | 82 | 72 | 0.9 | 5.2 | 0.00 | 0.00 | 0.00 | 96 | 1008.6 |
| 20260504214504 | 82 | 69 | 0.9 | 4.3 | 0.00 | 0.00 | 0.00 | 96 | 1008.5 |
| 20260504213002 | 82 | 71 | 0.9 | 6.1 | 0.00 | 0.00 | 0.00 | 96 | 1008.3 |
| 20260504211502 | 82 | 67 | 1.7 | 4.3 | 0.00 | 0.00 | 0.00 | 96 | 1008.4 |
| 20260504210003 | 82 | 82 | 1.7 | 4.3 | 0.00 | 0.00 | 0.00 | 96 | 1008.4 |
| 20260504204502 | 82 | 64 | 0.9 | 2.6 | 0.00 | 0.00 | 0.00 | 96 | 1008.4 |
| 20260504203005 | 82 | 39 | 0.9 | 2.6 | 0.00 | 0.00 | 0.00 | 96 | 1008.5 |
| 20260504201502 | 82 | 128 | 0.0 | 2.6 | 0.00 | 0.00 | 0.00 | 95 | 1008.4 |
| 20260504200004 | 82 | 108 | 0.9 | 3.5 | 0.00 | 0.00 | 0.00 | 95 | 1008.2 |
| 20260504194502 | 82 | 119 | 1.7 | 5.2 | 0.00 | 0.00 | 0.00 | 95 | 1008.3 |
| 20260504193005 | 82 | 113 | 1.7 | 6.1 | 0.00 | 0.00 | 0.00 | 95 | 1008.6 |
| 20260504191502 | 83 | 65 | 1.7 | 5.2 | 0.00 | 0.00 | 0.00 | 95 | 1008.4 |
| 20260504190002 | 82 | 77 | 1.7 | 3.5 | 0.00 | 0.00 | 0.00 | 95 | 1008.5 |
| 20260504184504 | 82 | 84 | 1.7 | 4.3 | 0.00 | 0.00 | 0.00 | 95 | 1008.7 |
| 20260504183005 | 82 | 77 | 1.7 | 6.1 | 0.00 | 0.00 | 0.00 | 95 | 1008.6 |
| 20260504181502 | 82 | 65 | 0.9 | 5.2 | 0.00 | 0.00 | 0.00 | 95 | 1008.8 |
| 20260504180003 | 82 | 82 | 2.6 | 7.0 | 0.00 | 0.00 | 0.00 | 95 | 1008.8 |
| 20260504174502 | 82 | 130 | 1.7 | 5.2 | 0.00 | 0.00 | 0.00 | 95 | 1009.1 |
| 20260504173008 | 82 | 86 | 0.9 | 3.5 | 0.00 | 0.00 | 0.00 | 95 | 1008.7 |